Watertown, NY

9:43 PM EST on November 20, 2019 (GMT -0500)
Watertown International

Weather History for KART - September, 2019

Change the Weather History Date:

Monday, September 23, 2019

  Actual Average Record
Temperature  
Mean Temperature 69 °F 57 °F  
Max Temperature 77 °F 68 °F 86 °F (1959)
Min Temperature 61 °F 46 °F 26 °F (1974)
Degree Days  
Heating Degree Days 0 9  
Month to date heating degree days 121 129  
Since 1 July heating degree days 150 201  
Cooling Degree Days 4 1  
Month to date cooling degree days 19 33  
Year to date cooling degree days 340 357  
Growing Degree Days 20 (Base 50)    
Moisture  
Dew Point 64 °F    
Average Humidity 79    
Maximum Humidity 93    
Minimum Humidity 64    
Precipitation  
Precipitation 0.35 in 0.14 in 1.22 in (1983)
Month to date precipitation 2.84 2.76  
Year to date precipitation 30.93 24.56  
Sea Level Pressure  
Sea Level Pressure 29.71 in    
Wind  
Wind Speed 11 mph (SW)    
Max Wind Speed 20 mph    
Max Gust Speed 27 mph    
Visibility 8 miles    
Events Rain    
T = Trace of Precipitation, MM = Missing Value Source: NWS Daily Summary

Daily Weather History Graph

Daily Weather History Graph

Search for Another Location

Airport or City:

Astronomy

Sep. 23, 2019 Rise Set
Actual Time 6:52 AM EDT 7:00 PM EDT
Civil Twilight 6:23 AM EDT 7:28 PM EDT
Nautical Twilight 5:49 AM EDT 8:02 PM EDT
Astronomical Twilight 5:14 AM EDT 8:36 PM EDT
Moon 12:19 AM EDT (9/23) 4:04 PM EDT (9/23)
Length of Visible Light 13h 05m
Length of Day
12h 07m
Waning Crescent, 33% of the Moon is Illuminated
Sep 23
Waning Crescent
Sep 28
New
Oct 5
First Quarter
Oct 13
Full
Oct 21
Last Quarter

Hourly Weather History & Observations

Time (EDT) Temp. Dew Point Humidity Pressure Visibility Wind Dir Wind Speed Gust Speed Precip Events Conditions
12:56 AM 73.9 °F 66.0 °F 76% 29.81 in 9.0 mi South 9.2 mph - N/A   Partly Cloudy
1:56 AM 73.9 °F 66.0 °F 76% 29.80 in 9.0 mi SSW 9.2 mph - N/A   Clear
2:56 AM 75.0 °F 64.9 °F 71% 29.77 in 10.0 mi SSW 11.5 mph 18.4 mph N/A   Clear
3:56 AM 75.9 °F 63.0 °F 64% 29.75 in 10.0 mi SSW 11.5 mph 20.7 mph N/A   Clear
4:56 AM 75.9 °F 62.1 °F 62% 29.74 in 10.0 mi SSW 11.5 mph 21.9 mph N/A   Clear
5:56 AM 75.0 °F 62.1 °F 64% 29.75 in 10.0 mi SSW 12.7 mph 23.0 mph N/A   Clear
6:56 AM 73.9 °F 62.1 °F 66% 29.74 in 10.0 mi SW 10.4 mph - 0.00 in   Overcast
7:53 AM 69.8 °F 62.6 °F 78% 29.75 in 2.5 mi SW 12.7 mph 19.6 mph 0.02 in Rain Light Rain
7:56 AM 70.0 °F 63.0 °F 78% 29.74 in 3.0 mi SW 11.5 mph 19.6 mph 0.02 in Rain Light Rain
8:56 AM 69.1 °F 64.9 °F 87% 29.72 in 8.0 mi Calm Calm - 0.03 in   Overcast
9:56 AM 71.1 °F 64.0 °F 78% 29.72 in 10.0 mi SSW 10.4 mph - N/A   Overcast
10:56 AM 72.0 °F 63.0 °F 73% 29.72 in 10.0 mi SW 12.7 mph - N/A   Overcast
11:37 AM 73.9 °F 64.0 °F 71% 29.73 in 10.0 mi SW 13.8 mph 23.0 mph N/A   Overcast
11:56 AM 73.0 °F 63.0 °F 71% 29.71 in 10.0 mi SW 17.3 mph 23.0 mph N/A   Overcast
12:56 PM 73.9 °F 64.0 °F 71% 29.71 in 10.0 mi SW 16.1 mph - N/A   Overcast
1:47 PM 75.0 °F 64.9 °F 71% 29.70 in 10.0 mi SW 16.1 mph 24.2 mph 0.00 in Rain Light Rain
1:56 PM 75.0 °F 66.0 °F 73% 29.68 in 10.0 mi SW 18.4 mph 25.3 mph 0.00 in Rain Light Rain
2:56 PM 73.9 °F 64.9 °F 73% 29.67 in 10.0 mi WSW 15.0 mph 21.9 mph 0.00 in   Scattered Clouds
3:24 PM 70.0 °F 66.0 °F 87% 29.69 in 1.8 mi SW 12.7 mph - 0.04 in Rain Rain
3:56 PM 69.1 °F 66.9 °F 93% 29.66 in 0.8 mi SW 10.4 mph - 0.19 in Rain Heavy Rain
4:04 PM 69.1 °F 66.9 °F 93% 29.67 in 1.2 mi SW 13.8 mph 19.6 mph 0.03 in Rain Rain
4:09 PM 69.1 °F 66.0 °F 90% 29.67 in 2.0 mi SW 12.7 mph 23.0 mph 0.04 in Rain Rain
4:20 PM 68.0 °F 66.0 °F 93% 29.67 in 4.0 mi SW 12.7 mph - 0.05 in Rain Light Rain
4:40 PM 68.0 °F 66.0 °F 93% 29.67 in 1.8 mi SSW 9.2 mph - 0.07 in Rain Rain
4:51 PM 68.0 °F 66.2 °F 94% 29.66 in 2.0 mi SW 6.9 mph - 0.09 in Rain Light Rain
4:56 PM 68.0 °F 66.0 °F 93% 29.65 in 3.0 mi SW 8.1 mph - 0.09 in Rain Light Rain
5:56 PM 68.0 °F 66.0 °F 93% 29.66 in 10.0 mi SW 9.2 mph - 0.02 in Rain Light Rain
6:28 PM 68.0 °F 64.9 °F 90% 29.68 in 10.0 mi SW 9.2 mph - 0.00 in Rain Light Rain
6:56 PM 66.9 °F 64.9 °F 93% 29.68 in 10.0 mi SW 10.4 mph - 0.00 in Rain Light Rain
7:56 PM 66.9 °F 64.0 °F 90% 29.70 in 10.0 mi WSW 5.8 mph - 0.00 in   Overcast
8:56 PM 66.0 °F 61.0 °F 84% 29.73 in 10.0 mi WSW 4.6 mph - 0.00 in   Partly Cloudy
9:56 PM 64.9 °F 59.0 °F 81% 29.73 in 10.0 mi West 9.2 mph - N/A   Scattered Clouds
10:56 PM 64.0 °F 55.9 °F 75% 29.73 in 10.0 mi West 10.4 mph - N/A   Mostly Cloudy
11:56 PM 63.0 °F 55.0 °F 75% 29.73 in 10.0 mi West 10.4 mph - N/A   Clear